Regional Weather Roundup
Issued by NWS

Home | Current Version | Previous Version | Text Only | Print | Product List | Glossary Off
Versions: 1 2 3 4 5 6 7 8 9 10 11 12 13 14 15 16 17 18 19 20 21 22 23 24 25 26 27 28 29 30 31 32 33 34 35 36 37 38 39 40 41 42 43 44 45 46 47 48 49 50

000
ASUS45 KABQ 172201
RWRNM
NEW MEXICO REGIONAL WEATHER ROUNDUP
NATIONAL WEATHER SERVICE ALBUQUERQUE NM
300 PM MST WED JAN 17 2018

NOTE: "FAIR" MEANS FEW OR NO CLOUDS BELOW 12,000 FEET AGL WITH NO
       SIGNIFICANT WEATHER OR OBSTRUCTIONS TO VISION.

      THIS PRODUCT IS RELEASED AS TWO VERSIONS.  ONE VERSION NEAR
      THE TOP OF THE HOUR CONTAINING PRELIMINARY DATA FROM ALBUQUERQUE
      AND OTHER STATIONS.  A FINAL VERSION WITH ADDITIONAL DATA IS
      ISSUED ABOUT 10 MINUTES AFTER THE HOUR.

NMZ501-503-504-510>518-172300-
NORTHWEST PLATEAU/NORTHCENTRAL MOUNTAINS

CITY           SKY/WX    TMP DP  RH WIND       PRES   REMARKS
FARMINGTON     FAIR      43  20  39 W7        30.29F
LOS ALAMOS     FAIR      40  14  34 CALM      30.27F
SANTA FE       FAIR      41  17  38 SW14      30.25F
TAOS           FAIR      46   2  16 N12       30.28S
ANGEL FIRE     FAIR      48  -5  11 N7        30.25S

$$
NMZ402-403-502-505>509-172300-
WESTCENTRAL MOUNTAINS/SOUTHWEST MOUNTAINS

CITY           SKY/WX    TMP DP  RH WIND       PRES   REMARKS
GALLUP         FAIR      49  18  29 CALM      30.28F
GRANTS         FAIR      46  11  24 N16G22    30.30S
SILVER CITY    FAIR      40  14  33 S6        30.29S

$$
NMZ407-409-411-412-172300-
SOUTHERN DESERTS

CITY           SKY/WX    TMP DP  RH WIND       PRES   REMARKS
DEMING         FAIR      41  15  35 E8        30.30F
LAS CRUCES     FAIR      41  14  32 E6        30.31S
HOLLOMAN AFB   FAIR      44  11  26 W8        30.33F
ALAMOGORDO     FAIR      45   9  23 NW6       30.31F
T OR C         FAIR      43  12  28 CALM      30.29F

$$
NMZ519>523-172300-
CENTRAL VALLEYS/CENTRAL HIGHLANDS

CITY           SKY/WX    TMP DP  RH WIND       PRES   REMARKS
ALBUQUERQUE    PTSUNNY   41  15  35 CALM      30.30F
DOUBLE EAGLE   PTSUNNY   39  16  38 VRB5      30.30F
MORIARTY ARPT  FAIR      48  12  24 N12       30.26S
CLINES CORNERS NOT AVBL
BELEN          FAIR      40  13  32 CALM      30.30F
SOCORRO        FAIR      37  12  35 CALM      30.31F

$$
NMZ524>526-539-540-172300-
SOUTHCENTRAL MOUNTAINS

CITY           SKY/WX    TMP DP  RH WIND       PRES   REMARKS
RUIDOSO        FAIR      41  14  33 N7        30.27F

$$
NMZ527>531-172300-
NORTHEAST HIGHLANDS/NORTHEAST PLAINS

CITY           SKY/WX    TMP DP  RH WIND       PRES   REMARKS
LAS VEGAS      FAIR      49   6  17 E9        30.24R
RATON          FAIR      55 -14   5 NE13      30.22R
CLAYTON        FAIR      49  15  25 S12       30.23S

$$
NMZ532>537-172300-
EASTCENTRAL PLAINS

CITY           SKY/WX    TMP DP  RH WIND       PRES   REMARKS
TUCUMCARI      FAIR      47  10  22 S9        30.26S
CANNON AFB     FAIR      44  17  33 SW12      30.31S
CLOVIS AIRPORT FAIR      44  18  35 S14G20    30.31F

$$
NMZ028-029-538-172300-
SOUTHEAST PLAINS

CITY           SKY/WX    TMP DP  RH WIND       PRES   REMARKS
ROSWELL        FAIR      42  12  29 S12       30.31F
ARTESIA        FAIR      39   9  28 SE13      30.34F WCI  32
CARLSBAD       FAIR      37   8  30 SE12      30.35F WCI  29
HOBBS          PTSUNNY   37  -8  14 S10       30.38S WCI  30


$$




USA.gov is the U.S. government's official web portal to all federal, state and local government web resources and services.